�������l�o���
Date,Time,MP-1(��Sv/h),MP-2(��Sv/h),MP-3(��Sv/h),MP-4(��Sv/h),MP-5(��Sv/h),MP-6(��Sv/h),MP-7(��Sv/h),MP-8(��Sv/h),����,����(m/s),���J
2017/04/05,00:00,1.022,1.650,1.117,1.959,1.370,0.543,0.996,0.924,��쐼,4.0,��
2017/04/05,00:10,1.022,1.652,1.118,1.958,1.365,0.544,0.995,0.927,��쐼,3.2,��
2017/04/05,00:20,1.019,1.653,1.118,1.959,1.368,0.544,0.995,0.923,��쐼,3.2,��
2017/04/05,00:30,1.021,1.653,1.118,1.959,1.364,0.543,0.996,0.927,�쐼,3.6,��
2017/04/05,00:40,1.022,1.651,1.119,1.961,1.366,0.544,0.996,0.925,�쐼,5.0,��
2017/04/05,00:50,1.020,1.653,1.118,1.957,1.364,0.543,0.997,0.926,�쐼,5.4,��
2017/04/05,01:00,1.022,1.654,1.118,1.960,1.368,0.542,0.995,0.924,�쐼,4.7,��
2017/04/05,01:10,1.022,1.652,1.118,1.963,1.367,0.543,0.995,0.925,�쐼,3.2,��
2017/04/05,01:20,1.022,1.653,1.118,1.960,1.366,0.541,0.994,0.925,�쐼,2.0,��
2017/04/05,01:30,1.021,1.651,1.118,1.962,1.363,0.543,0.995,0.924,��쐼,2.3,��
2017/04/05,01:40,1.022,1.654,1.119,1.962,1.363,0.543,0.995,0.924,��쐼,2.6,��
2017/04/05,01:50,1.022,1.652,1.119,1.962,1.366,0.543,0.995,0.926,��,3.8,��
2017/04/05,02:00,1.020,1.653,1.116,1.957,1.364,0.543,0.995,0.925,��,3.6,��
2017/04/05,02:10,1.022,1.653,1.119,1.957,1.365,0.542,0.995,0.927,��쐼,4.2,��
2017/04/05,02:20,1.021,1.650,1.116,1.962,1.366,0.543,0.994,0.925,��쐼,3.6,��
2017/04/05,02:30,1.020,1.651,1.117,1.959,1.364,0.542,0.995,0.925,��쐼,3.8,��
2017/04/05,02:40,1.019,1.650,1.118,1.960,1.365,0.543,0.994,0.925,��쐼,3.5,��
2017/04/05,02:50,1.022,1.650,1.118,1.959,1.364,0.540,0.994,0.925,��쐼,3.5,��
2017/04/05,03:00,1.019,1.652,1.117,1.959,1.362,0.542,0.993,0.923,��쐼,3.4,��
2017/04/05,03:10,1.021,1.650,1.115,1.958,1.364,0.540,0.993,0.925,��쐼,3.4,��
2017/04/05,03:20,1.018,1.650,1.118,1.960,1.363,0.542,0.993,0.923,��쐼,3.9,��
2017/04/05,03:30,1.020,1.651,1.117,1.958,1.365,0.542,0.994,0.926,��쐼,3.1,��
2017/04/05,03:40,1.020,1.651,1.119,1.958,1.365,0.542,0.995,0.925,��쐼,2.3,��
2017/04/05,03:50,1.019,1.650,1.117,1.958,1.365,0.542,0.993,0.924,�쐼,2.3,��
2017/04/05,04:00,1.021,1.651,1.117,1.959,1.365,0.540,0.994,0.924,��쐼,1.5,��
2017/04/05,04:10,1.020,1.651,1.115,1.957,1.363,0.542,0.994,0.925,�쐼,1.2,��
2017/04/05,04:20,1.019,1.652,1.114,1.956,1.361,0.541,0.995,0.924,�쐼,1.7,��
2017/04/05,04:30,1.021,1.651,1.117,1.953,1.362,0.539,0.993,0.923,���쐼,1.4,��
2017/04/05,04:40,1.018,1.652,1.115,1.958,1.364,0.542,0.996,0.924,���k��,0.9,��
2017/04/05,04:50,1.018,1.651,1.116,1.958,1.364,0.541,0.992,0.925,�k�k��,0.9,��
2017/04/05,05:00,1.018,1.652,1.114,1.956,1.363,0.543,0.991,0.923,�k�k��,0.6,��
2017/04/05,05:10,1.019,1.652,1.114,1.959,1.364,0.541,0.995,0.923,�쐼,0.6,��
2017/04/05,05:20,1.018,1.652,1.117,1.960,1.364,0.542,0.994,0.924,��쐼,0.6,��
2017/04/05,05:30,1.018,1.651,1.117,1.955,1.362,0.543,0.993,0.925,�쐼,1.2,��
2017/04/05,05:40,1.017,1.650,1.117,1.957,1.361,0.541,0.989,0.922,�쐼,1.1,��
2017/04/05,05:50,1.018,1.651,1.115,1.958,1.361,0.541,0.995,0.926,���쐼,1.2,��
2017/04/05,06:00,1.020,1.651,1.116,1.958,1.362,0.541,0.993,0.926,���쐼,0.9,��
2017/04/05,06:10,1.018,1.652,1.116,1.960,1.362,0.542,0.993,0.926,-,CALM,��
2017/04/05,06:20,1.018,1.651,1.117,1.961,1.362,0.541,0.994,0.925,-,CALM,��
2017/04/05,06:30,1.019,1.652,1.113,1.959,1.363,0.541,0.993,0.925,���k��,0.9,��
2017/04/05,06:40,1.019,1.652,1.116,1.958,1.363,0.542,0.995,0.925,���k��,1.7,��
2017/04/05,06:50,1.019,1.653,1.116,1.959,1.362,0.543,0.995,0.924,���k��,1.7,��
2017/04/05,07:00,1.019,1.655,1.118,1.959,1.363,0.542,0.996,0.926,���k��,1.2,��
2017/04/05,07:10,1.020,1.653,1.118,1.961,1.362,0.544,0.995,0.924,�k��,1.4,��
2017/04/05,07:20,1.022,1.655,1.118,1.962,1.364,0.544,0.994,0.924,�k��,1.2,��
2017/04/05,07:30,1.019,1.655,1.120,1.962,1.367,0.543,0.998,0.924,�k�k��,1.2,��
2017/04/05,07:40,1.020,1.655,1.120,1.962,1.366,0.542,0.996,0.924,�k�k��,1.2,��
2017/04/05,07:50,1.021,1.655,1.119,1.960,1.365,0.542,0.996,0.926,�k�k��,1.2,��
2017/04/05,08:00,1.022,1.658,1.121,1.963,1.364,0.541,0.999,0.926,�k��,0.6,��
2017/04/05,08:10,1.023,1.655,1.120,1.961,1.368,0.542,0.997,0.926,���k��,0.9,��
2017/04/05,08:20,1.023,1.656,1.121,1.964,1.368,0.540,0.999,0.928,���k��,0.9,��
2017/04/05,08:30,1.022,1.654,1.119,1.963,1.367,0.542,0.997,0.926,�k��,2.6,��
2017/04/05,08:40,1.022,1.650,1.121,1.967,1.367,0.539,0.997,0.929,�k��,2.6,��
2017/04/05,08:50,1.021,1.649,1.125,1.964,1.367,0.541,0.996,0.929,�k��,2.2,��
2017/04/05,09:00,1.022,1.651,1.119,1.968,1.369,0.541,0.994,0.925,�k��,2.3,��
2017/04/05,09:10,1.022,1.651,1.119,1.964,1.371,0.542,0.994,0.924,���k��,2.0,��
2017/04/05,09:20,1.023,1.652,1.122,1.969,1.368,0.540,0.995,0.925,��,2.0,��
2017/04/05,09:30,1.024,1.653,1.124,1.968,1.369,0.541,0.994,0.926,��,1.7,��
2017/04/05,09:40,1.022,1.653,1.121,1.964,1.372,0.540,0.997,0.923,��,1.7,��
2017/04/05,09:50,1.023,1.654,1.120,1.967,1.371,0.541,0.997,0.925,���쓌,1.5,��
2017/04/05,10:00,1.024,1.654,1.121,1.969,1.372,0.543,0.997,0.924,��,1.9,��
2017/04/05,10:10,1.027,1.653,1.124,1.969,1.370,0.542,0.997,0.924,���쓌,2.3,��
2017/04/05,10:20,1.025,1.651,1.122,1.967,1.370,0.542,0.997,0.923,���쓌,2.5,��
2017/04/05,10:30,1.023,1.657,1.123,1.968,1.371,0.541,0.997,0.924,��,1.9,��
2017/04/05,10:40,1.026,1.652,1.122,1.969,1.370,0.544,0.996,0.925,���쓌,2.6,��
2017/04/05,10:50,1.025,1.651,1.123,1.968,1.373,0.543,0.997,0.925,���쓌,2.0,��
2017/04/05,11:00,1.026,1.658,1.122,1.969,1.368,0.542,0.996,0.925,���쓌,2.2,��
2017/04/05,11:10,1.027,1.656,1.124,1.970,1.372,0.542,0.998,0.924,�쓌,2.5,��
2017/04/05,11:20,1.027,1.659,1.124,1.968,1.370,0.544,0.998,0.924,�쓌,2.0,��
2017/04/05,11:30,1.026,1.656,1.125,1.967,1.369,0.542,1.000,0.925,�쓌,2.0,��
2017/04/05,11:40,1.028,1.659,1.124,1.972,1.369,0.542,0.999,0.922,�쓌,2.0,��
2017/04/05,11:50,1.026,1.660,1.128,1.970,1.372,0.542,0.997,0.923,�쓌,3.0,��
2017/04/05,12:00,1.025,1.662,1.126,1.969,1.372,0.543,0.998,0.923,�쓌,3.1,��
2017/04/05,12:10,1.026,1.657,1.125,1.972,1.373,0.543,0.999,0.925,�쓌,2.6,��
2017/04/05,12:20,1.025,1.657,1.125,1.968,1.375,0.542,0.999,0.925,�쓌,3.2,��
2017/04/05,12:30,1.026,1.659,1.123,1.969,1.374,0.545,0.997,0.926,��쓌,3.9,��
2017/04/05,12:40,1.028,1.658,1.124,1.971,1.375,0.544,0.999,0.925,��쓌,7.1,��
2017/04/05,12:50,1.028,1.659,1.126,1.973,1.374,0.545,0.998,0.924,��쓌,7.0,��
2017/04/05,13:00,1.026,1.661,1.123,1.973,1.375,0.546,1.000,0.925,��쓌,6.5,��
2017/04/05,13:10,1.027,1.657,1.126,1.972,1.377,0.545,0.999,0.925,��,8.5,��
2017/04/05,13:20,1.030,1.662,1.124,1.973,1.376,0.546,1.001,0.925,��,8.5,��
2017/04/05,13:30,1.030,1.659,1.127,1.973,1.376,0.544,1.002,0.927,��,8.1,��
2017/04/05,13:40,1.027,1.662,1.126,1.973,1.376,0.545,0.999,0.927,��,7.2,��
2017/04/05,13:50,1.030,1.661,1.128,1.974,1.376,0.544,1.000,0.925,��,7.5,��
2017/04/05,14:00,1.031,1.661,1.127,1.975,1.377,0.545,1.000,0.925,��,8.9,��
2017/04/05,14:10,1.030,1.664,1.127,1.974,1.379,0.545,0.999,0.929,��쓌,8.8,��
2017/04/05,14:20,1.030,1.669,1.130,1.976,1.377,0.546,1.001,0.926,��쓌,9.6,��
2017/04/05,14:30,1.032,1.670,1.128,1.976,1.379,0.545,1.002,0.927,��쓌,10.4,��
2017/04/05,14:40,1.032,1.667,1.128,1.977,1.379,0.546,1.001,0.927,��쓌,11.3,��
2017/04/05,14:50,1.033,1.671,1.128,1.979,1.379,0.548,1.003,0.927,��쓌,11.3,��
2017/04/05,15:00,1.030,1.669,1.129,1.979,1.381,0.547,1.002,0.926,��쓌,10.2,��
2017/04/05,15:10,1.030,1.669,1.128,1.977,1.378,0.546,1.001,0.926,��,10.2,��
2017/04/05,15:20,1.032,1.669,1.128,1.976,1.379,0.548,1.000,0.926,��쓌,12.1,��
2017/04/05,15:30,1.029,1.668,1.129,1.973,1.379,0.546,1.000,0.925,��,10.7,��
2017/04/05,15:40,1.030,1.668,1.131,1.969,1.380,0.545,1.002,0.926,��,10.5,��
2017/04/05,15:50,1.031,1.669,1.131,1.972,1.378,0.545,1.002,0.925,��,10.0,��
2017/04/05,16:00,1.029,1.668,1.126,1.972,1.381,0.548,1.000,0.924,��,9.9,��
2017/04/05,16:10,1.032,1.670,1.126,1.973,1.377,0.549,1.003,0.926,��,10.5,��
2017/04/05,16:20,1.031,1.671,1.131,1.970,1.379,0.550,1.000,0.926,��,9.5,��
2017/04/05,16:30,1.029,1.670,1.129,1.972,1.379,0.548,1.001,0.927,��,10.2,��
2017/04/05,16:40,1.031,1.671,1.127,1.971,1.379,0.548,1.000,0.926,��,8.4,��
2017/04/05,16:50,1.031,1.671,1.129,1.973,1.378,0.548,1.000,0.927,��,9.1,��
2017/04/05,17:00,1.031,1.672,1.131,1.973,1.379,0.548,1.001,0.928,��,8.5,��
2017/04/05,17:10,1.030,1.671,1.130,1.976,1.380,0.550,1.001,0.931,��,7.9,��
2017/04/05,17:20,1.033,1.672,1.130,1.974,1.379,0.550,1.001,0.929,��,8.3,��
2017/04/05,17:30,1.034,1.674,1.130,1.974,1.377,0.553,1.001,0.932,��,7.7,��
2017/04/05,17:40,1.036,1.673,1.131,1.974,1.380,0.551,1.000,0.930,��,8.2,��
2017/04/05,17:50,1.037,1.672,1.130,1.977,1.377,0.550,0.999,0.930,��,6.5,��
2017/04/05,18:00,1.034,1.676,1.130,1.975,1.379,0.547,1.000,0.930,��,6.1,��
2017/04/05,18:10,1.033,1.674,1.132,1.974,1.382,0.549,1.001,0.930,��,7.8,��
2017/04/05,18:20,1.035,1.672,1.128,1.976,1.379,0.551,0.999,0.930,��,6.0,��
2017/04/05,18:30,1.033,1.670,1.132,1.976,1.382,0.549,1.000,0.929,��쐼,4.9,��
2017/04/05,18:40,1.033,1.672,1.129,1.972,1.382,0.549,1.001,0.929,��쐼,1.1,��
2017/04/05,18:50,1.032,1.669,1.130,1.973,1.379,0.550,1.001,0.931,�쐼,3.4,��
2017/04/05,19:00,1.033,1.669,1.129,1.976,1.378,0.547,1.001,0.928,�쐼,3.3,��
2017/04/05,19:10,1.034,1.669,1.129,1.976,1.380,0.548,1.000,0.928,���쐼,2.8,��
2017/04/05,19:20,1.033,1.668,1.128,1.976,1.380,0.549,1.002,0.930,��,2.5,��
2017/04/05,19:30,1.035,1.670,1.129,1.973,1.379,0.548,1.002,0.927,���k��,2.9,��
2017/04/05,19:40,1.033,1.670,1.128,1.975,1.381,0.550,1.002,0.927,���k��,1.9,��
2017/04/05,19:50,1.032,1.667,1.131,1.971,1.380,0.547,1.002,0.928,���k��,2.2,��
2017/04/05,20:00,1.033,1.668,1.126,1.972,1.381,0.548,1.001,0.930,���k��,2.9,��
2017/04/05,20:10,1.031,1.666,1.129,1.974,1.380,0.548,1.001,0.927,��,2.3,��
2017/04/05,20:20,1.031,1.665,1.131,1.971,1.379,0.549,1.001,0.928,�쐼,1.4,��
2017/04/05,20:30,1.032,1.666,1.130,1.975,1.382,0.549,1.001,0.929,��,1.9,��
2017/04/05,20:40,1.031,1.667,1.128,1.973,1.380,0.547,1.000,0.929,��쓌,1.2,��
2017/04/05,20:50,1.031,1.668,1.128,1.975,1.379,0.549,1.001,0.929,��쓌,2.8,��
2017/04/05,21:00,1.032,1.664,1.129,1.973,1.379,0.546,1.000,0.928,��,3.5,��
2017/04/05,21:10,1.032,1.668,1.128,1.974,1.378,0.548,1.003,0.928,��쐼,3.0,��
2017/04/05,21:20,1.032,1.669,1.128,1.973,1.378,0.546,1.001,0.929,��,2.9,��
2017/04/05,21:30,1.033,1.668,1.130,1.975,1.381,0.548,1.002,0.930,��,3.0,��
2017/04/05,21:40,1.032,1.665,1.129,1.974,1.380,0.547,1.003,0.928,��쐼,3.3,��
2017/04/05,21:50,1.031,1.665,1.128,1.971,1.379,0.548,1.001,0.927,��쐼,3.2,��
2017/04/05,22:00,1.032,1.665,1.128,1.972,1.379,0.547,1.001,0.928,��쐼,4.5,��
2017/04/05,22:10,1.032,1.668,1.129,1.972,1.379,0.547,1.000,0.927,��쐼,4.5,��
2017/04/05,22:20,1.031,1.667,1.130,1.972,1.380,0.548,1.001,0.929,��쐼,3.9,��
2017/04/05,22:30,1.031,1.667,1.129,1.975,1.378,0.548,1.000,0.929,��쐼,4.0,��
2017/04/05,22:40,1.034,1.664,1.129,1.975,1.377,0.548,1.002,0.930,��쐼,3.9,��
2017/04/05,22:50,1.032,1.671,1.129,1.974,1.380,0.547,1.002,0.930,���쐼,2.3,��
2017/04/05,23:00,1.033,1.665,1.129,1.973,1.379,0.548,1.002,0.927,��,2.2,��
2017/04/05,23:10,1.030,1.668,1.131,1.977,1.379,0.548,1.001,0.928,���k��,1.7,��
2017/04/05,23:20,1.035,1.666,1.131,1.975,1.378,0.548,1.002,0.927,���쐼,0.9,��
2017/04/05,23:30,1.032,1.667,1.130,1.974,1.376,0.548,1.001,0.931,��쐼,0.9,��
2017/04/05,23:40,1.033,1.667,1.130,1.975,1.379,0.547,1.000,0.928,��쐼,0.9,��
2017/04/05,23:50,1.034,1.669,1.131,1.977,1.380,0.547,1.000,0.928,��쐼,1.2,��
